{"data":{"norad_id":47357,"intl_designator":"2021-005J","name":"STARLINK-2050","alt_names":[],"object_type":"PAYLOAD","status":"ACTIVE","operator":null,"country":"US","launch_date":"2021-01-20","launch_site_code":"AFETR","launch_vehicle":null,"mission":null,"orbit_class":"UNKNOWN","rcs_meters":null,"size_class":null,"mass_kg":null,"dimensions":null,"purposes":["comms"],"wikipedia_slug":null,"has_3d_model":false,"image_url":null,"decayed_at":null,"tle_current":{"epoch":"2026-05-25T06:00:02.000160Z","epoch_age_seconds":60418,"freshness":"FRESH","line1":"1 47357U 21005J   26145.25002315  .00060192  00000+0  19382-2 0  9992","line2":"2 47357  53.1592  66.7972 0001146  89.1767 154.2012 15.31661244  5812","mean_motion":15.31661244,"eccentricity":0.0001146,"inclination_deg":53.1592,"raan_deg":66.7972,"arg_perigee_deg":89.1767,"mean_anomaly_deg":154.2012,"bstar":0.0019382,"rev_number":581,"period_min":94.015566799835,"perigee_km":470.07063273738,"apogee_km":471.64042182463,"semimajor_km":6848.992527281,"source":"CELESTRAK","updated_at":"2026-05-25T13:38:16.524867Z"}}}